LRSB Weather Reports


Display with metric or nautical units.
time (UTC)temp
F
wind
direction
speed
MPH
gust
MPH
rain 1hr
in
rain 24hr
in
rain mn
in
humidity
%
barometer
mb
20260507083311 72 250 6.0 0.0 0.00 0.00 0.00 50 1014.0
20260507081811 70 250 8.0 0.0 0.00 0.00 0.00 60 1014.0
20260507080312 70 250 8.0 0.0 0.00 0.00 0.00 60 1014.0
20260507074811 70 280 3.0 0.0 0.00 0.00 0.00 57 1014.0
20260507073311 70 280 3.0 0.0 0.00 0.00 0.00 57 1014.0
20260507071811 70 270 5.0 0.0 0.00 0.00 0.00 57 1014.0
20260507070311 70 230 3.0 0.0 0.00 0.00 0.00 57 1014.0
20260507064811 68 230 3.0 0.0 0.00 0.00 0.00 60 1014.0
20260507063311 68 230 3.0 0.0 0.00 0.00 0.00 60 1014.0
20260507061823 66 140 3.0 0.0 0.00 0.00 0.00 56 1014.0
20260507060311 66 140 3.0 0.0 0.00 0.00 0.00 56 1014.0
20260507054811 64 1.0 0.0 0.00 0.00 0.00 60 1014.0
20260507053318 64 1.0 0.0 0.00 0.00 0.00 60 1014.0
20260507051811 57 2.0 0.0 0.00 0.00 0.00 77 1014.0
20260507050311 57 2.0 0.0 0.00 0.00 0.00 77 1014.0
20260507044811 55 2.0 0.0 0.00 0.00 0.00 88 1014.0
20260507043311 55 2.0 0.0 0.00 0.00 0.00 88 1014.0
20260507041811 52 230 3.0 0.0 0.00 0.00 0.00 82 1014.0
20260507040311 52 230 3.0 0.0 0.00 0.00 0.00 82 1014.0
20260507034811 48 240 3.0 0.0 0.00 0.00 0.00 87 1014.0
20260507033310 48 240 3.0 0.0 0.00 0.00 0.00 87 1014.0
20260507031811 50 1.0 0.0 0.00 0.00 0.00 82 1014.0
20260507030311 50 1.0 0.0 0.00 0.00 0.00 82 1014.0
20260507024811 59 100 5.0 0.0 0.00 0.00 0.00 63 1014.0
20260507023311 59 100 5.0 0.0 0.00 0.00 0.00 63 1014.0
20260507021811 55 70 1.0 0.0 0.00 0.00 0.00 72 1014.0
20260507020311 55 70 1.0 0.0 0.00 0.00 0.00 72 1014.0
20260507014811 61 90 5.0 0.0 0.00 0.00 0.00 59 1014.0
20260507013310 61 90 5.0 0.0 0.00 0.00 0.00 59 1014.0
20260507011811 61 120 8.0 0.0 0.00 0.00 0.00 59 1013.0
20260507010311 61 120 8.0 0.0 0.00 0.00 0.00 59 1013.0
20260507004810 66 160 8.0 0.0 0.00 0.00 0.00 49 1013.0
20260507003311 66 160 8.0 0.0 0.00 0.00 0.00 49 1013.0
20260507001811 66 170 8.0 0.0 0.00 0.00 0.00 49 1013.0
20260507000313 66 170 8.0 0.0 0.00 0.00 0.00 49 1013.0
20260506234811 64 190 8.0 0.0 0.00 0.00 0.00 52 1014.0
20260506233311 64 190 8.0 0.0 0.00 0.00 0.00 52 1014.0
20260506231812 64 180 6.0 0.0 0.00 0.00 0.00 52 1014.0
20260506230311 64 180 6.0 0.0 0.00 0.00 0.00 52 1014.0
20260506224810 63 180 7.0 0.0 0.00 0.00 0.00 56 1014.0
20260506223311 63 180 7.0 0.0 0.00 0.00 0.00 56 1014.0
20260506221811 66 180 8.0 0.0 0.00 0.00 0.00 49 1014.0
20260506220310 66 180 8.0 0.0 0.00 0.00 0.00 49 1014.0
20260506214827 68 190 9.0 0.0 0.00 0.00 0.00 46 1014.0
20260506213311 68 190 9.0 0.0 0.00 0.00 0.00 46 1014.0
20260506211811 64 200 7.0 0.0 0.00 0.00 0.00 49 1013.0
20260506210310 64 200 7.0 0.0 0.00 0.00 0.00 49 1013.0
20260506204811 57 240 3.0 0.0 0.00 0.00 0.00 59 1013.0
20260506203311 57 240 3.0 0.0 0.00 0.00 0.00 59 1013.0
20260506201811 61 1.0 0.0 0.00 0.00 0.00 52 1013.0
20260506200311 61 1.0 0.0 0.00 0.00 0.00 52 1013.0
20260506194830 63 230 3.0 0.0 0.00 0.00 0.00 45 1013.0
20260506193334 63 230 3.0 0.0 0.00 0.00 0.00 45 1013.0
20260506191812 64 180 5.0 0.0 0.00 0.00 0.00 43 1013.0
20260506190311 64 180 5.0 0.0 0.00 0.00 0.00 43 1013.0
20260506184816 66 250 3.0 0.0 0.00 0.00 0.00 43 1013.0
20260506183311 66 250 3.0 0.0 0.00 0.00 0.00 43 1013.0
20260506181811 66 240 3.0 0.0 0.00 0.00 0.00 49 1012.0
20260506180311 66 240 3.0 0.0 0.00 0.00 0.00 49 1012.0
20260506174811 70 270 5.0 0.0 0.00 0.00 0.00 46 1012.0
20260506173311 70 270 5.0 0.0 0.00 0.00 0.00 46 1012.0
20260506171811 73 230 7.0 0.0 0.00 0.00 0.00 38 1011.0
20260506170311 73 230 7.0 0.0 0.00 0.00 0.00 38 1011.0
20260506164811 77 230 9.0 0.0 0.00 0.00 0.00 32 1011.0
20260506163311 77 230 9.0 0.0 0.00 0.00 0.00 32 1011.0
20260506161811 73 280 7.0 0.0 0.00 0.00 0.00 44 1011.0
20260506160311 73 280 7.0 0.0 0.00 0.00 0.00 44 1011.0
20260506154812 79 2.0 0.0 0.00 0.00 0.00 28 1011.0
20260506153311 79 2.0 0.0 0.00 0.00 0.00 28 1011.0
20260506151811 79 160 9.0 0.0 0.00 0.00 0.00 28 1011.0
20260506150317 79 160 9.0 0.0 0.00 0.00 0.00 28 1011.0
20260506144811 77 130 8.0 0.0 0.00 0.00 0.00 28 1011.0
20260506143322 77 130 8.0 0.0 0.00 0.00 0.00 28 1011.0
20260506141811 81 130 11.0 0.0 0.00 0.00 0.00 24 1011.0
20260506140425 81 130 11.0 0.0 0.00 0.00 0.00 24 1011.0
20260506134836 81 140 11.0 0.0 0.00 0.00 0.00 23 1011.0
20260506133311 81 140 11.0 0.0 0.00 0.00 0.00 23 1011.0
20260506131811 81 110 9.0 0.0 0.00 0.00 0.00 23 1011.0
20260506130320 81 110 9.0 0.0 0.00 0.00 0.00 23 1011.0
20260506124811 81 5.0 0.0 0.00 0.00 0.00 23 1012.0
20260506123311 81 5.0 0.0 0.00 0.00 0.00 23 1012.0
20260506121811 79 110 7.0 0.0 0.00 0.00 0.00 24 1012.0
20260506120311 79 110 7.0 0.0 0.00 0.00 0.00 24 1012.0
20260506114811 79 130 9.0 0.0 0.00 0.00 0.00 23 1012.0
20260506113311 79 130 9.0 0.0 0.00 0.00 0.00 23 1012.0
20260506111811 79 20 7.0 0.0 0.00 0.00 0.00 28 1013.0
20260506110311 79 20 7.0 0.0 0.00 0.00 0.00 28 1013.0
20260506104811 77 110 7.0 0.0 0.00 0.00 0.00 28 1013.0
20260506103311 77 110 7.0 0.0 0.00 0.00 0.00 28 1013.0
20260506101811 77 110 7.0 0.0 0.00 0.00 0.00 30 1013.0
20260506100311 77 110 7.0 0.0 0.00 0.00 0.00 30 1013.0
20260506094811 77 3.0 0.0 0.00 0.00 0.00 30 1014.0
20260506093311 77 3.0 0.0 0.00 0.00 0.00 30 1014.0
20260506091811 75 3.0 0.0 0.00 0.00 0.00 31 1014.0
20260506090311 75 3.0 0.0 0.00 0.00 0.00 29 1014.0
20260506084811 73 30 3.0 0.0 0.00 0.00 0.00 31 1014.0